TimeEDT,TemperatureF,Dew PointF,Humidity,Sea Level PressureIn,VisibilityMPH,Wind Direction,Wind SpeedMPH,Gust SpeedMPH,PrecipitationIn,Events,Conditions,WindDirDegrees,DateUTC
12:56 AM,69.1,66.0,90,30.01,10.0,NE,8.1,-,N/A,,Mostly Cloudy,50,2012-10-26 04:56:00
1:56 AM,68.0,66.0,93,29.99,10.0,NE,9.2,-,N/A,,Mostly Cloudy,40,2012-10-26 05:56:00
2:56 AM,68.0,64.9,90,29.97,10.0,NE,9.2,-,N/A,,Mostly Cloudy,40,2012-10-26 06:56:00
3:56 AM,66.9,64.9,93,29.96,10.0,NE,6.9,-,N/A,,Mostly Cloudy,40,2012-10-26 07:56:00
4:56 AM,66.9,64.0,90,29.96,10.0,NNE,9.2,-,N/A,,Scattered Clouds,30,2012-10-26 08:56:00
5:56 AM,66.0,64.0,93,29.96,10.0,NE,10.4,-,N/A,,Partly Cloudy,40,2012-10-26 09:56:00
6:56 AM,66.0,63.0,90,29.96,10.0,NE,11.5,-,N/A,,Partly Cloudy,40,2012-10-26 10:56:00
7:56 AM,66.0,62.1,87,29.96,10.0,NNE,11.5,-,N/A,,Mostly Cloudy,30,2012-10-26 11:56:00
8:56 AM,66.9,62.1,84,29.97,10.0,NNE,13.8,-,N/A,,Mostly Cloudy,30,2012-10-26 12:56:00
9:56 AM,71.1,62.1,73,29.97,10.0,NE,17.3,23.0,N/A,,Mostly Cloudy,40,2012-10-26 13:56:00
10:56 AM,75.0,61.0,62,29.96,10.0,NE,12.7,-,N/A,,Overcast,40,2012-10-26 14:56:00
11:56 AM,77.0,59.0,54,29.94,9.0,NE,20.7,28.8,N/A,,Overcast,40,2012-10-26 15:56:00
12:56 PM,79.0,60.1,52,29.92,10.0,NNE,19.6,25.3,N/A,,Overcast,30,2012-10-26 16:56:00
1:56 PM,78.1,61.0,56,29.88,10.0,NNE,17.3,24.2,N/A,,Overcast,30,2012-10-26 17:56:00
2:56 PM,79.0,61.0,54,29.87,10.0,NNE,18.4,-,N/A,,Overcast,20,2012-10-26 18:56:00
3:56 PM,77.0,60.1,56,29.85,10.0,NNE,16.1,21.9,N/A,,Overcast,30,2012-10-26 19:56:00
4:56 PM,75.0,61.0,62,29.83,10.0,NNE,17.3,24.2,N/A,,Overcast,30,2012-10-26 20:56:00
5:56 PM,73.0,61.0,66,29.84,10.0,NNE,11.5,27.6,N/A,,Overcast,20,2012-10-26 21:56:00
6:56 PM,71.1,61.0,70,29.83,10.0,North,15.0,-,N/A,,Overcast,10,2012-10-26 22:56:00
7:56 PM,70.0,61.0,73,29.83,10.0,North,17.3,25.3,N/A,,Overcast,360,2012-10-26 23:56:00
8:13 PM,69.8,60.8,73,29.82,10.0,North,15.0,25.3,N/A,,Overcast,10,2012-10-27 00:13:00
8:56 PM,69.1,61.0,75,29.82,10.0,North,15.0,21.9,N/A,,Overcast,10,2012-10-27 00:56:00
9:56 PM,69.1,62.1,78,29.81,10.0,North,16.1,20.7,N/A,,Overcast,10,2012-10-27 01:56:00
10:32 PM,69.8,62.6,78,29.80,10.0,North,16.1,24.2,N/A,,Mostly Cloudy,10,2012-10-27 02:32:00
10:56 PM,69.1,62.1,78,29.80,10.0,NNE,13.8,21.9,N/A,,Overcast,20,2012-10-27 02:56:00
11:56 PM,68.0,62.1,81,29.78,10.0,North,16.1,21.9,N/A,,Overcast,10,2012-10-27 03:56:00